Location: Dignopr�
(50.6392°N, 1.8990°E)
Time: 00:06:56
(UTC+00:00)

Daily predictions for brighter satellites

Satellite Brightness Start Highest point End
(mag) Time Altitude Azimuth Time Altitude Azimuth Time Altitude Azimuth
COSMOS 2406 4.3 03:52:20 36° SE 03:52:20 36° SE 03:55:37 10° SE
Cosmos 2082 Rocket 2.9 03:52:49 50° ENE 03:52:49 50° ENE 03:57:46 10° SE
COSMOS 2455 3.8 03:57:05 40° SSE 03:57:05 40° SSE 04:00:46 10° SSE
Cosmos 1844 Rocket 4.5 04:07:42 20° N 04:07:42 20° N 04:09:41 10° NNE
Cosmos 2278 Rocket 2.5 04:13:39 54° SSE 04:14:35 62° ESE 04:20:11 10° NE
USA 215 3.1 04:11:17 10° SE 04:17:47 68° SW 04:17:51 68° SW
BREEZE M DEB (TANK) 3.9 04:21:18 53° SE 04:21:18 53° SE 04:24:01 10° E
CZ-2C R/B 3.6 04:16:21 10° SE 04:21:38 48° ENE 04:26:50 10° N
Cosmos 1072 Rocket 4.4 04:18:58 29° N 04:22:20 87° E 04:28:28 10° S
Cosmos 540 Rocket 3.6 04:25:25 70° SE 04:25:25 70° SE 04:29:59 10° SSE
Cosmos 1833 Rocket 4.0 04:34:00 25° S 04:34:00 25° S 04:36:29 10° S
SL-8 R/B 4.3 04:35:05 48° SSE 04:35:12 48° SSE 04:39:48 10° E
Cosmos 841 Rocket 3.3 04:48:37 63° NW 04:49:26 81° WSW 04:54:35 10° SSE
CZ-4C R/B 4.2 04:48:25 10° SE 04:51:22 36° ENE 04:51:34 36° ENE
SJ-12 4.3 04:53:00 10° NNE 04:57:07 65° ESE 05:01:14 10° S
H-2A R/B 4.0 04:54:25 10° ESE 04:57:58 27° ENE 05:01:34 10° N
Envisat 3.3 04:52:56 10° NNE 04:58:01 66° ESE 05:03:04 10° S
SL-19 R/B 4.2 04:55:27 10° S 05:01:03 61° WSW 05:03:26 34° NW
Cosmos 1570 Rocket 4.1 05:01:27 25° NNW 05:04:36 78° ENE 05:09:50 10° SSE
YAOGAN 6 2.5 05:02:34 10° NNE 05:06:17 88° E 05:09:58 10° SSW
Cosmos 1076 Rocket 3.4 05:03:35 10° S 05:07:57 89° WSW 05:12:22 10° N
COSMO-SKYMED 1 2.4 05:08:38 10° S 05:12:57 68° WSW 05:14:38 36° NNW
Cosmos 1867 3.6 05:10:50 30° NW 05:13:37 79° NE 05:19:05 10° SE
Cosmos 1464 Rocket 4.2 05:10:38 10° NNW 05:16:36 44° W 05:22:29 10° SSW
APEX 2.8 05:16:51 60° E 05:16:51 60° E 05:19:29 10° SE
Cosmos 921 Rocket 4.2 05:13:08 13° N 05:16:50 42° ENE 05:21:02 10° SE
H-2A R/B 2.5 05:15:36 10° N 05:19:17 74° WNW 05:22:58 10° SSW
NOSS 3-2 (A) 4.0 05:13:53 10° SSW 05:19:20 56° SE 05:25:40 10° NE
Geosat FO 4.2 05:17:34 10° SSE 05:20:55 77° WSW 05:21:18 65° WNW
Cosmos 1151 Rocket 4.1 05:21:00 10° N 05:25:15 47° ENE 05:29:29 10° SSE
CENTAUR R/B 3.3 05:20:24 10° SSW 05:26:05 52° ESE 05:32:55 10° NE
Cosmos 2208 Rocket 4.0 05:24:24 16° NNW 05:28:52 85° WSW 05:34:17 10° SSE
Gbstr 26 Del rocket 3.1 05:28:19 40° WSW 05:29:16 50° SSW 05:33:22 10° SE
CZ-4B R/B 4.4 05:26:02 10° NNE 05:29:25 34° E 05:32:42 10° SSE
Cosmos 1814 Rocket 4.0 05:28:34 24° NW 05:31:36 59° WSW 05:36:37 10° S
Meteor 2-3 Rocket 3.7 05:26:25 10° S 05:32:04 88° ESE 05:37:49 10° NNE
Landsat 5 3.7 05:29:04 10° S 05:33:29 54° W 05:36:50 17° NNW
COSMOS 2406 4.5 05:34:29 21° WSW 05:34:29 21° WSW 05:37:46 10° SSW
Cosmos 2082 Rocket 2.9 05:34:44 28° WNW 05:36:09 32° WSW 05:41:01 10° SSW
Meteor 1-26 Rocket 4.3 05:31:27 10° NNW 05:37:29 74° W 05:43:21 10° S
COSMOS 2455 4.2 05:40:17 18° WSW 05:40:17 18° WSW 05:43:45 10° SW
Meteor PRIRODA 4.4 05:36:43 10° NNE 05:40:17 52° E 05:43:49 10° S
Cosmos 1850 Rocket 4.3 05:36:01 10° SW 05:41:08 47° WNW 05:46:20 10° NNE
CZ-4B R/B 3.3 05:39:21 10° SE 05:42:20 30° ENE 05:45:18 10° N
Cosmos 2297 4.0 05:36:49 10° SSW 05:42:32 72° ESE 05:48:16 10° NNE
Kosmos-917 3.8 05:43:21 21° WSW 05:45:08 73° NW 05:50:36 10° NE
USA 238 DEB 4.2 05:44:41 10° SSW 05:51:04 62° SE 05:57:50 10° NE
USA 238 4.2 05:44:48 10° SSW 05:51:11 62° SE 05:57:56 10° NE
Cosmos 1782 2.9 05:48:34 11° NNW 05:52:13 52° W 05:56:03 10° S
NOAA 11 4.2 05:49:01 10° NNE 05:54:31 90° E 06:00:00 10° SSW
CZ-2C R/B 3.1 05:51:28 10° NNE 05:56:14 74° ESE 06:01:07 10° S
Cosmos 1862 4.1 05:53:47 10° S 05:57:38 55° E 06:01:31 10° NNE
Cosmos 2278 Rocket 3.0 05:55:34 17° W 05:59:04 31° NW 06:04:06 10° NNE
USA 215 4.5 05:56:39 10° S 06:01:37 23° SW 06:05:12 15° W
CZ-2C R/B 3.4 05:57:11 10° SSW 06:02:06 32° W 06:06:57 10° NNW
Cosmos 1943 Rocket 2.2 05:56:53 10° SSW 06:02:35 85° WNW 06:08:18 10° NNE
Cosmos 1933 4.3 06:03:35 17° NW 06:05:45 26° W 06:09:05 10° SW
Okean 3 Rocket 4.1 06:01:28 10° S 06:05:56 67° E 06:10:28 10° NNE
Cosmos 2344 3.6 06:01:30 10° WSW 06:08:50 66° NW 06:17:01 10° NE
IRAS Rocket 4.4 06:03:43 10° S 06:09:04 50° WSW 06:14:26 10° NNW
SJ-7 4.5 06:05:51 10° N 06:10:03 63° WNW 06:14:12 10° SSW
ADEOS 3.6 06:04:58 10° N 06:10:09 61° WNW 06:15:17 10° SSW
Meteor 1-31 Rocket 3.6 06:08:27 10° N 06:11:48 29° WNW 06:15:09 10° SW
Iridium 2 3.9 06:13:33 10° SSW 06:17:13 48° W 06:20:55 10° N
SL-8 R/B 3.9 06:13:04 12° W 06:17:29 69° S 06:22:14 10° E
Cosmos 2279 Rocket 4.0 06:13:15 10° NNW 06:19:23 66° W 06:25:29 10° S
Meteor 2-8 Rocket 4.4 06:14:08 10° NNW 06:20:19 80° W 06:26:27 10° S
Cosmos 2151 3.9 06:16:40 10° SW 06:20:21 28° WNW 06:24:05 10° N
DNEPR-1 R/B 3.9 06:17:44 10° NW 06:22:15 79° NE 06:27:39 10° SE
Tsikada Rocket 4.4 06:17:33 10° SW 06:23:16 38° WNW 06:29:05 10° N
Cosmos 1812 3.2 06:20:49 10° NNW 06:24:25 38° W 06:27:59 10° SSW
Cosmos 1634 Rocket 4.5 06:20:22 10° NNW 06:26:10 40° W 06:31:54 10° SSW
Cosmos 1939 Rocket 2.8 06:27:42 10° N 06:31:43 69° WNW 06:35:37 10° SSW
Nadezhda 4 Rocket 4.4 06:27:20 10° S 06:33:25 69° E 06:39:35 10° NNE
H-2A R/B 2.5 06:29:49 10° SSW 06:33:46 39° W 06:37:49 10° NNW
Cosmos 773 Rocket 4.5 06:29:30 10° NNW 06:34:46 63° ENE 06:39:55 10° SE
SMAP 3.0 06:30:38 10° NNE 06:35:19 83° WNW 06:39:58 10° SSW
Genesis I 3.7 06:31:59 10° NW 06:35:57 47° SW 06:39:52 10° SSE
FALCON 9 DEB 4.1 06:33:12 10° SW 06:35:57 40° SSE 06:38:42 10° ENE
Envisat 4.1 06:32:43 10° N 06:36:37 22° WNW 06:40:28 10° WSW
Meteor 1-27 Rocket 3.9 06:31:13 10° N 06:36:49 79° ENE 06:42:29 10° SSE
CZ-2D R/B 3.6 06:34:24 10° NNE 06:38:13 69° ESE 06:41:59 10° S
Cosmos 1766 Rocket 3.7 06:35:08 10° SSW 06:39:23 53° WNW 06:43:40 10° N
Cosmos 2098 Rocket 3.2 06:36:17 10° SW 06:39:35 37° WNW 06:43:37 10° N
PSLV R/B 3.9 06:37:59 10° NNE 06:41:51 81° ESE 06:45:46 10° SSW
Cosmos 2297 Rocket 4.0 06:40:36 10° NNW 06:45:07 24° NE 06:49:37 10° E
Lacrosse 4 Rocket 3.9 06:47:38 10° N 06:48:31 10° NNE 06:49:24 10° NNE
